Time,TemperatureF,DewpointF,PressureIn,WindDirection,WindDirectionDegrees,WindSpeedMPH,WindSpeedGustMPH,Humidity,HourlyPrecipIn,Conditions,Clouds,dailyrainin,SoftwareType,DateUTC
2013-07-06 00:00:00,71.2,61.7,29.85,SE,134,7.0,8.0,72,0.00,,CLR,0.00,VWS V14.01,2013-07-06 05:00:00,
2013-07-06 00:01:00,71.2,61.7,29.85,SE,131,5.0,7.0,72,0.00,,CLR,0.00,VWS V14.01,2013-07-06 05:01:00,
2013-07-06 00:06:00,71.2,61.7,29.85,SSE,155,5.0,8.0,72,0.00,,CLR,0.00,VWS V14.01,2013-07-06 05:06:00,
2013-07-06 00:11:00,71.1,61.6,29.85,SE,127,5.0,8.0,72,0.00,,CLR,0.00,VWS V14.01,2013-07-06 05:11:00,
2013-07-06 00:16:00,71.1,61.6,29.85,SE,141,6.0,9.0,72,0.00,,CLR,0.00,VWS V14.01,2013-07-06 05:16:00,
2013-07-06 00:21:00,71.0,61.9,29.85,SSE,151,6.0,9.0,73,0.00,,CLR,0.00,VWS V14.01,2013-07-06 05:21:00,
2013-07-06 00:26:00,70.9,61.8,29.85,SSE,148,4.0,9.0,73,0.00,,CLR,0.00,VWS V14.01,2013-07-06 05:26:00,
2013-07-06 00:30:00,70.8,61.7,29.85,SE,145,4.0,9.0,73,0.00,,CLR,0.00,VWS V14.01,2013-07-06 05:30:00,
2013-07-06 00:31:00,70.8,61.7,29.85,SSE,166,5.0,6.0,73,0.00,,CLR,0.00,VWS V14.01,2013-07-06 05:31:00,
2013-07-06 00:36:00,70.9,61.8,29.85,SE,146,5.0,8.0,73,0.00,,CLR,0.00,VWS V14.01,2013-07-06 05:36:00,
2013-07-06 00:41:00,70.9,61.8,29.85,ESE,121,6.0,9.0,73,0.00,,CLR,0.00,VWS V14.01,2013-07-06 05:41:00,
2013-07-06 00:46:00,71.1,61.6,29.85,SE,131,4.0,9.0,72,0.00,,CLR,0.00,VWS V14.01,2013-07-06 05:46:00,
2013-07-06 00:51:00,71.1,61.6,29.85,SE,135,6.0,10.0,72,0.00,,CLR,0.00,VWS V14.01,2013-07-06 05:51:00,
2013-07-06 00:56:00,71.1,61.6,29.85,SE,143,7.0,10.0,72,0.00,,CLR,0.00,VWS V14.01,2013-07-06 05:56:00,
2013-07-06 01:00:00,71.2,61.7,29.85,SE,134,7.0,8.0,72,0.00,,,0.00,VWS V14.01,2013-07-06 06:00:00,
2013-07-06 01:01:00,71.0,61.5,29.85,SE,133,5.0,7.0,72,0.00,,CLR,0.00,VWS V14.01,2013-07-06 06:01:00,
2013-07-06 01:06:00,71.1,61.6,29.85,South,177,5.0,9.0,72,0.00,,CLR,0.00,VWS V14.01,2013-07-06 06:06:00,
2013-07-06 01:11:00,71.2,61.3,29.85,South,176,5.0,9.0,71,0.00,,CLR,0.00,VWS V14.01,2013-07-06 06:11:00,
2013-07-06 01:16:00,71.5,61.6,29.85,SSE,152,6.0,11.0,71,0.00,,CLR,0.00,VWS V14.01,2013-07-06 06:16:00,
2013-07-06 01:21:00,71.8,61.5,29.85,SSE,161,7.0,12.0,70,0.00,,CLR,0.00,VWS V14.01,2013-07-06 06:21:00,
2013-07-06 01:26:00,72.1,61.4,29.85,SSE,162,8.0,13.0,69,0.00,,CLR,0.00,VWS V14.01,2013-07-06 06:26:00,
2013-07-06 01:30:00,70.8,61.7,29.85,SE,145,4.0,9.0,73,0.00,,,0.00,VWS V14.01,2013-07-06 06:30:00,
2013-07-06 01:31:00,72.2,61.1,29.85,SSE,153,7.0,9.0,68,0.00,,CLR,0.00,VWS V14.01,2013-07-06 06:31:00,
2013-07-06 01:36:00,72.3,61.2,29.85,SSE,165,6.0,13.0,68,0.00,,CLR,0.00,VWS V14.01,2013-07-06 06:36:00,
2013-07-06 01:41:00,72.3,61.2,29.85,SSE,162,4.0,13.0,68,0.00,,CLR,0.00,VWS V14.01,2013-07-06 06:41:00,
2013-07-06 01:46:00,72.3,61.2,29.85,SSE,155,5.0,13.0,68,0.00,,CLR,0.00,VWS V14.01,2013-07-06 06:46:00,
2013-07-06 01:51:00,72.3,61.2,29.85,SSE,159,6.0,13.0,68,0.00,,CLR,0.00,VWS V14.01,2013-07-06 06:51:00,
2013-07-06 01:56:00,72.3,61.2,29.85,SE,142,4.0,13.0,68,0.00,,CLR,0.00,VWS V14.01,2013-07-06 06:56:00,
2013-07-06 02:00:00,72.3,60.7,29.85,SE,146,6.0,13.0,67,0.00,,CLR,0.00,VWS V14.01,2013-07-06 07:00:00,
2013-07-06 02:01:00,72.3,60.7,29.85,South,177,6.0,6.0,67,0.00,,CLR,0.00,VWS V14.01,2013-07-06 07:01:00,
2013-07-06 02:06:00,72.2,60.7,29.85,SSE,163,7.0,9.0,67,0.00,,CLR,0.00,VWS V14.01,2013-07-06 07:06:00,
2013-07-06 02:11:00,72.2,61.1,29.85,SE,136,7.0,11.0,68,0.00,,CLR,0.00,VWS V14.01,2013-07-06 07:11:00,
2013-07-06 02:16:00,71.8,60.7,29.85,SE,139,4.0,11.0,68,0.00,,CLR,0.00,VWS V14.01,2013-07-06 07:16:00,
2013-07-06 02:21:00,71.7,61.0,29.86,SE,139,6.0,11.0,69,0.00,,CLR,0.00,VWS V14.01,2013-07-06 07:21:00,
2013-07-06 02:26:00,71.4,60.7,29.85,SE,134,6.0,11.0,69,0.00,,CLR,0.00,VWS V14.01,2013-07-06 07:26:00,
2013-07-06 02:30:00,72.2,61.1,29.85,SSE,155,9.0,14.0,68,0.00,,,0.00,VWS V14.01,2013-07-06 07:30:00,
2013-07-06 02:31:00,71.1,60.8,29.85,SE,135,9.0,9.0,70,0.00,,CLR,0.00,VWS V14.01,2013-07-06 07:31:00,
2013-07-06 02:36:00,70.9,60.6,29.86,SE,146,7.0,11.0,70,0.00,,CLR,0.00,VWS V14.01,2013-07-06 07:36:00,
2013-07-06 02:41:00,70.7,60.8,29.86,SE,145,9.0,11.0,71,0.00,,CLR,0.00,VWS V14.01,2013-07-06 07:41:00,
2013-07-06 02:46:00,70.5,61.0,29.86,SE,126,6.0,11.0,72,0.00,,CLR,0.00,VWS V14.01,2013-07-06 07:46:00,
2013-07-06 02:51:00,70.1,60.7,29.86,SE,130,4.0,11.0,72,0.00,,CLR,0.00,VWS V14.01,2013-07-06 07:51:00,
2013-07-06 02:56:00,69.8,60.8,29.86,ESE,121,5.0,11.0,73,0.00,,CLR,0.00,VWS V14.01,2013-07-06 07:56:00,
2013-07-06 03:00:00,72.3,60.7,29.85,SE,146,6.0,13.0,67,0.00,,,0.00,VWS V14.01,2013-07-06 08:00:00,
2013-07-06 03:01:00,69.4,60.8,29.86,SE,139,6.0,11.0,74,0.00,,CLR,0.00,VWS V14.01,2013-07-06 08:01:00,
2013-07-06 03:06:00,69.1,60.8,29.85,SSE,148,6.0,9.0,75,0.00,,CLR,0.00,VWS V14.01,2013-07-06 08:06:00,
2013-07-06 03:11:00,69.0,60.8,29.85,SSE,165,6.0,10.0,75,0.00,,CLR,0.00,VWS V14.01,2013-07-06 08:11:00,
2013-07-06 03:16:00,68.9,60.7,29.85,SE,130,5.0,10.0,75,0.00,,CLR,0.00,VWS V14.01,2013-07-06 08:16:00,
2013-07-06 03:21:00,68.6,60.7,29.85,SE,136,4.0,10.0,76,0.00,,CLR,0.00,VWS V14.01,2013-07-06 08:21:00,
2013-07-06 03:26:00,68.3,60.8,29.85,SE,146,5.0,10.0,77,0.00,,CLR,0.00,VWS V14.01,2013-07-06 08:26:00,
2013-07-06 03:30:00,68.0,60.9,29.85,SSE,150,4.0,10.0,78,0.00,,CLR,0.00,VWS V14.01,2013-07-06 08:30:00,
2013-07-06 03:31:00,68.0,60.9,29.85,ESE,123,4.0,4.0,78,0.00,,CLR,0.00,VWS V14.01,2013-07-06 08:31:00,
2013-07-06 03:36:00,67.7,60.6,29.85,SE,142,5.0,6.0,78,0.00,,CLR,0.00,VWS V14.01,2013-07-06 08:36:00,
2013-07-06 03:41:00,67.4,60.7,29.85,SE,136,4.0,7.0,79,0.00,,CLR,0.00,VWS V14.01,2013-07-06 08:41:00,
2013-07-06 03:46:00,67.2,60.8,29.85,SSE,149,5.0,7.0,80,0.00,,CLR,0.00,VWS V14.01,2013-07-06 08:46:00,
2013-07-06 03:51:00,67.3,60.6,29.85,SE,140,3.0,7.0,79,0.00,,CLR,0.00,VWS V14.01,2013-07-06 08:51:00,
2013-07-06 03:56:00,67.3,60.9,29.85,SE,132,5.0,9.0,80,0.00,,CLR,0.00,VWS V14.01,2013-07-06 08:56:00,
2013-07-06 04:00:00,69.4,60.8,29.86,SE,139,6.0,11.0,74,0.00,,,0.00,VWS V14.01,2013-07-06 09:00:00,
2013-07-06 04:01:00,67.2,60.8,29.85,SE,128,5.0,5.0,80,0.00,,CLR,0.00,VWS V14.01,2013-07-06 09:01:00,
2013-07-06 04:06:00,67.2,60.8,29.84,SSE,153,5.0,7.0,80,0.00,,CLR,0.00,VWS V14.01,2013-07-06 09:06:00,
2013-07-06 04:11:00,67.2,60.8,29.84,SSE,149,6.0,7.0,80,0.00,,CLR,0.00,VWS V14.01,2013-07-06 09:11:00,
2013-07-06 04:16:00,67.2,60.8,29.84,SE,140,5.0,7.0,80,0.00,,CLR,0.00,VWS V14.01,2013-07-06 09:16:00,
2013-07-06 04:21:00,67.3,60.9,29.84,SE,143,7.0,8.0,80,0.00,,CLR,0.00,VWS V14.01,2013-07-06 09:21:00,
2013-07-06 04:26:00,67.3,60.9,29.84,SE,140,5.0,9.0,80,0.00,,CLR,0.00,VWS V14.01,2013-07-06 09:26:00,
2013-07-06 04:30:00,67.3,60.9,29.84,SE,143,5.0,9.0,80,0.00,,CLR,0.00,VWS V14.01,2013-07-06 09:30:00,
2013-07-06 04:31:00,67.3,60.9,29.84,SE,146,6.0,6.0,80,0.00,,CLR,0.00,VWS V14.01,2013-07-06 09:31:00,
2013-07-06 04:36:00,67.3,60.9,29.84,SE,146,4.0,8.0,80,0.00,,CLR,0.00,VWS V14.01,2013-07-06 09:36:00,
2013-07-06 04:41:00,67.2,60.8,29.84,SE,141,5.0,9.0,80,0.00,,CLR,0.00,VWS V14.01,2013-07-06 09:41:00,
2013-07-06 04:46:00,67.2,61.2,29.84,SE,134,5.0,9.0,81,0.00,,CLR,0.00,VWS V14.01,2013-07-06 09:46:00,
2013-07-06 04:51:00,67.1,61.1,29.85,SE,134,5.0,9.0,81,0.00,,CLR,0.00,VWS V14.01,2013-07-06 09:51:00,
2013-07-06 04:56:00,67.1,61.1,29.85,SE,143,5.0,9.0,81,0.00,,CLR,0.00,VWS V14.01,2013-07-06 09:56:00,
2013-07-06 05:00:00,67.1,61.1,29.85,SSE,149,4.0,9.0,81,0.00,,CLR,0.00,VWS V14.01,2013-07-06 10:00:00,
2013-07-06 05:01:00,67.1,61.1,29.85,SE,124,5.0,5.0,81,0.00,,CLR,0.00,VWS V14.01,2013-07-06 10:01:00,
2013-07-06 05:06:00,67.1,61.1,29.85,SE,136,4.0,9.0,81,0.00,,CLR,0.00,VWS V14.01,2013-07-06 10:06:00,
2013-07-06 05:11:00,67.1,61.1,29.85,SE,141,4.0,9.0,81,0.00,,CLR,0.00,VWS V14.01,2013-07-06 10:11:00,
2013-07-06 05:16:00,67.3,61.3,29.85,SSE,155,3.0,9.0,81,0.00,,CLR,0.00,VWS V14.01,2013-07-06 10:16:00,
2013-07-06 05:21:00,67.5,61.1,29.85,SSE,159,6.0,9.0,80,0.00,,CLR,0.00,VWS V14.01,2013-07-06 10:21:00,
2013-07-06 05:26:00,67.6,61.2,29.85,SE,132,5.0,9.0,80,0.00,,CLR,0.00,VWS V14.01,2013-07-06 10:26:00,
2013-07-06 05:30:00,67.7,61.3,29.85,SSE,165,4.0,9.0,80,0.00,,CLR,0.00,VWS V14.01,2013-07-06 10:30:00,
2013-07-06 05:36:00,67.8,61.1,29.85,SSE,155,4.0,9.0,79,0.00,,CLR,0.00,VWS V14.01,2013-07-06 10:36:00,
2013-07-06 05:40:00,68.0,61.2,29.85,SSE,148,8.0,10.0,79,0.00,,CLR,0.00,VWS V14.01,2013-07-06 10:40:00,
2013-07-06 05:45:00,68.3,61.2,29.85,SSE,167,4.0,10.0,78,0.00,,CLR,0.00,VWS V14.01,2013-07-06 10:45:00,
2013-07-06 05:51:00,68.5,61.4,29.85,SSE,163,6.0,11.0,78,0.00,,CLR,0.00,VWS V14.01,2013-07-06 10:51:00,
2013-07-06 05:56:00,68.6,61.5,29.85,SSW,207,7.0,11.0,78,0.00,,CLR,0.00,VWS V14.01,2013-07-06 10:56:00,
2013-07-06 06:00:00,68.6,61.1,29.85,SSW,198,7.0,11.0,77,0.00,,CLR,0.00,VWS V14.01,2013-07-06 11:00:00,
2013-07-06 06:05:00,68.7,61.2,29.85,SE,139,4.0,11.0,77,0.00,,CLR,0.00,VWS V14.01,2013-07-06 11:05:00,
2013-07-06 06:10:00,68.7,61.2,29.85,SSE,149,4.0,11.0,77,0.00,,CLR,0.00,VWS V14.01,2013-07-06 11:10:00,
2013-07-06 06:15:00,68.8,61.3,29.85,SSE,156,6.0,11.0,77,0.00,,CLR,0.00,VWS V14.01,2013-07-06 11:15:00,
2013-07-06 06:20:00,68.8,61.3,29.85,SSE,166,6.0,11.0,77,0.00,,CLR,0.00,VWS V14.01,2013-07-06 11:20:00,
2013-07-06 06:25:00,68.9,61.4,29.86,SW,214,4.0,11.0,77,0.00,,CLR,0.00,VWS V14.01,2013-07-06 11:25:00,
2013-07-06 06:30:00,69.0,61.5,29.86,SW,225,6.0,11.0,77,0.00,,CLR,0.00,VWS V14.01,2013-07-06 11:30:00,
2013-07-06 06:35:00,69.1,61.6,29.85,South,172,7.0,11.0,77,0.00,,CLR,0.00,VWS V14.01,2013-07-06 11:35:00,
2013-07-06 06:40:00,69.2,61.7,29.85,SW,224,8.0,11.0,77,0.00,,CLR,0.00,VWS V14.01,2013-07-06 11:40:00,
2013-07-06 06:45:00,69.4,61.5,29.85,SSW,205,8.0,11.0,76,0.00,,CLR,0.00,VWS V14.01,2013-07-06 11:45:00,
2013-07-06 06:50:00,69.6,61.7,29.85,SW,219,6.0,11.0,76,0.00,,CLR,0.00,VWS V14.01,2013-07-06 11:50:00,
2013-07-06 06:55:00,69.7,61.4,29.85,SSE,163,6.0,13.0,75,0.00,,CLR,0.00,VWS V14.01,2013-07-06 11:55:00,
2013-07-06 07:00:00,69.9,61.6,29.85,SE,136,7.0,13.0,75,0.00,,CLR,0.00,VWS V14.01,2013-07-06 12:00:00,
2013-07-06 07:05:00,70.2,61.5,29.86,SE,136,5.0,9.0,74,0.00,,CLR,0.00,VWS V14.01,2013-07-06 12:05:00,
2013-07-06 07:10:00,70.4,61.7,29.86,SE,145,6.0,9.0,74,0.00,,CLR,0.00,VWS V14.01,2013-07-06 12:10:00,
2013-07-06 07:15:00,70.6,61.5,29.86,SSE,155,8.0,11.0,73,0.00,,CLR,0.00,VWS V14.01,2013-07-06 12:15:00,
2013-07-06 07:20:00,70.8,61.7,29.86,South,178,5.0,13.0,73,0.00,,CLR,0.00,VWS V14.01,2013-07-06 12:20:00,
2013-07-06 07:25:00,71.0,61.9,29.86,SSW,193,5.0,13.0,73,0.00,,CLR,0.00,VWS V14.01,2013-07-06 12:25:00,
2013-07-06 07:30:00,71.1,61.6,29.86,SE,136,9.0,13.0,72,0.00,,CLR,0.00,VWS V14.01,2013-07-06 12:30:00,
2013-07-06 07:35:00,71.1,61.6,29.86,SSE,149,4.0,11.0,72,0.00,,CLR,0.00,VWS V14.01,2013-07-06 12:35:00,
2013-07-06 07:40:00,71.2,61.7,29.86,SSE,155,8.0,12.0,72,0.00,,CLR,0.00,VWS V14.01,2013-07-06 12:40:00,
2013-07-06 07:45:00,71.5,62.0,29.86,SSW,200,12.0,13.0,72,0.00,,CLR,0.00,VWS V14.01,2013-07-06 12:45:00,
2013-07-06 07:50:00,72.0,62.1,29.86,SSW,207,9.0,15.0,71,0.00,,CLR,0.00,VWS V14.01,2013-07-06 12:50:00,
2013-07-06 07:55:00,72.4,62.1,29.86,South,170,6.0,16.0,70,0.00,,CLR,0.00,VWS V14.01,2013-07-06 12:55:00,
2013-07-06 08:00:00,72.9,62.1,29.85,SW,229,10.0,16.0,69,0.00,,CLR,0.00,VWS V14.01,2013-07-06 13:00:00,
2013-07-06 08:05:00,73.3,62.1,29.85,SE,133,11.0,14.0,68,0.00,,CLR,0.00,VWS V14.01,2013-07-06 13:05:00,
2013-07-06 08:10:00,73.6,62.4,29.85,SSW,207,9.0,14.0,68,0.00,,CLR,0.00,VWS V14.01,2013-07-06 13:10:00,
2013-07-06 08:15:00,74.1,62.5,29.85,SW,215,5.0,14.0,67,0.00,,CLR,0.00,VWS V14.01,2013-07-06 13:15:00,
2013-07-06 08:20:00,74.3,62.2,29.85,South,187,10.0,17.0,66,0.00,,CLR,0.00,VWS V14.01,2013-07-06 13:20:00,
2013-07-06 08:25:00,74.5,62.4,29.85,SSW,201,7.0,17.0,66,0.00,,CLR,0.00,VWS V14.01,2013-07-06 13:25:00,
2013-07-06 08:30:00,74.6,62.9,29.85,SSE,149,5.0,17.0,67,0.00,,CLR,0.00,VWS V14.01,2013-07-06 13:30:00,
2013-07-06 08:35:00,74.6,62.5,29.85,SW,217,6.0,13.0,66,0.00,,CLR,0.00,VWS V14.01,2013-07-06 13:35:00,
2013-07-06 08:40:00,74.8,63.1,29.85,SW,215,8.0,14.0,67,0.00,,CLR,0.00,VWS V14.01,2013-07-06 13:40:00,
2013-07-06 08:45:00,75.2,63.1,29.85,SSE,148,10.0,15.0,66,0.00,,CLR,0.00,VWS V14.01,2013-07-06 13:45:00,
2013-07-06 08:50:00,75.5,62.9,29.85,South,181,8.0,16.0,65,0.00,,CLR,0.00,VWS V14.01,2013-07-06 13:50:00,
2013-07-06 08:55:00,75.8,63.2,29.85,SW,228,9.0,16.0,65,0.00,,CLR,0.00,VWS V14.01,2013-07-06 13:55:00,
2013-07-06 09:00:00,76.2,62.7,29.85,SW,234,10.0,16.0,63,0.00,,CLR,0.00,VWS V14.01,2013-07-06 14:00:00,
2013-07-06 09:05:00,76.6,63.5,29.85,ESE,116,4.0,12.0,64,0.00,,CLR,0.00,VWS V14.01,2013-07-06 14:05:00,
2013-07-06 09:10:00,77.1,63.5,29.85,SSW,200,8.0,14.0,63,0.00,,CLR,0.00,VWS V14.01,2013-07-06 14:10:00,
2013-07-06 09:15:00,77.3,63.3,29.85,SSE,162,5.0,14.0,62,0.00,,CLR,0.00,VWS V14.01,2013-07-06 14:15:00,
2013-07-06 09:20:00,77.5,63.0,29.85,South,174,9.0,15.0,61,0.00,,CLR,0.00,VWS V14.01,2013-07-06 14:20:00,
2013-07-06 09:25:00,77.9,63.8,29.85,SSW,194,7.0,15.0,62,0.00,,CLR,0.00,VWS V14.01,2013-07-06 14:25:00,
2013-07-06 09:30:00,78.4,63.8,29.85,SSW,197,9.0,15.0,61,0.00,,CLR,0.00,VWS V14.01,2013-07-06 14:30:00,
2013-07-06 09:35:00,78.7,63.7,29.84,SSW,210,10.0,15.0,60,0.00,,CLR,0.00,VWS V14.01,2013-07-06 14:35:00,
2013-07-06 09:40:00,79.1,64.0,29.84,SSW,195,6.0,15.0,60,0.00,,CLR,0.00,VWS V14.01,2013-07-06 14:40:00,
2013-07-06 09:45:00,79.5,64.4,29.84,SSW,193,5.0,15.0,60,0.00,,CLR,0.00,VWS V14.01,2013-07-06 14:45:00,
2013-07-06 09:50:00,79.8,64.2,29.84,SSW,207,4.0,15.0,59,0.00,,CLR,0.00,VWS V14.01,2013-07-06 14:50:00,
2013-07-06 09:55:00,80.2,64.1,29.84,SW,222,5.0,15.0,58,0.00,,CLR,0.00,VWS V14.01,2013-07-06 14:55:00,
2013-07-06 10:00:00,80.6,64.5,29.84,WSW,238,7.0,15.0,58,0.00,,CLR,0.00,VWS V14.01,2013-07-06 15:00:00,
2013-07-06 10:05:00,81.4,65.2,29.84,SSW,207,7.0,10.0,58,0.00,,CLR,0.00,VWS V14.01,2013-07-06 15:05:00,
2013-07-06 10:10:00,81.8,64.1,29.83,SSW,212,8.0,18.0,55,0.00,,CLR,0.00,VWS V14.01,2013-07-06 15:10:00,
2013-07-06 10:15:00,81.9,64.2,29.83,SSW,203,8.0,18.0,55,0.00,,CLR,0.00,VWS V14.01,2013-07-06 15:15:00,
2013-07-06 10:20:00,82.1,63.3,29.83,SSW,197,11.0,18.0,53,0.00,,CLR,0.00,VWS V14.01,2013-07-06 15:20:00,
2013-07-06 10:25:00,82.3,64.0,29.83,SSW,202,10.0,18.0,54,0.00,,CLR,0.00,VWS V14.01,2013-07-06 15:25:00,
2013-07-06 10:30:00,82.5,62.6,29.83,South,191,10.0,18.0,51,0.00,,CLR,0.00,VWS V14.01,2013-07-06 15:30:00,
2013-07-06 10:35:00,82.7,63.3,29.83,SSW,207,9.0,15.0,52,0.00,,CLR,0.00,VWS V14.01,2013-07-06 15:35:00,
2013-07-06 10:40:00,82.9,62.9,29.83,SW,229,11.0,15.0,51,0.00,,CLR,0.00,VWS V14.01,2013-07-06 15:40:00,
2013-07-06 10:45:00,83.1,62.5,29.83,SSW,193,8.0,15.0,50,0.00,,CLR,0.00,VWS V14.01,2013-07-06 15:45:00,
2013-07-06 10:50:00,83.4,62.8,29.83,SE,137,8.0,15.0,50,0.00,,CLR,0.00,VWS V14.01,2013-07-06 15:50:00,
2013-07-06 10:55:00,83.7,63.7,29.83,South,179,9.0,15.0,51,0.00,,CLR,0.00,VWS V14.01,2013-07-06 15:55:00,
2013-07-06 11:00:00,83.6,63.0,29.83,SSE,162,11.0,15.0,50,0.00,,CLR,0.00,VWS V14.01,2013-07-06 16:00:00,
2013-07-06 11:06:00,83.7,64.2,29.83,SE,145,9.0,18.0,52,0.00,,CLR,0.00,VWS V14.01,2013-07-06 16:06:00,
2013-07-06 11:11:00,84.1,62.9,29.83,South,184,6.0,18.0,49,0.00,,CLR,0.00,VWS V14.01,2013-07-06 16:11:00,
2013-07-06 11:16:00,84.1,63.5,29.83,SSW,194,9.0,18.0,50,0.00,,CLR,0.00,VWS V14.01,2013-07-06 16:16:00,
2013-07-06 11:21:00,84.3,61.9,29.83,SSW,207,9.0,18.0,47,0.00,,CLR,0.00,VWS V14.01,2013-07-06 16:21:00,
2013-07-06 11:26:00,84.4,63.2,29.83,SW,221,8.0,18.0,49,0.00,,CLR,0.00,VWS V14.01,2013-07-06 16:26:00,
2013-07-06 11:30:00,84.6,63.3,29.83,SSW,193,9.0,18.0,49,0.00,,CLR,0.00,VWS V14.01,2013-07-06 16:30:00,
2013-07-06 11:31:00,84.7,63.5,29.83,SW,219,7.0,10.0,49,0.00,,CLR,0.00,VWS V14.01,2013-07-06 16:31:00,
2013-07-06 11:36:00,85.4,62.9,29.83,South,186,12.0,14.0,47,0.00,,CLR,0.00,VWS V14.01,2013-07-06 16:36:00,
2013-07-06 11:43:00,85.6,63.1,29.83,SSW,196,11.0,14.0,47,0.00,,CLR,0.00,VWS V14.01,2013-07-06 16:43:00,
2013-07-06 11:48:00,85.8,62.7,29.83,South,183,7.0,14.0,46,0.00,,CLR,0.00,VWS V14.01,2013-07-06 16:48:00,
2013-07-06 11:53:00,86.0,63.4,29.82,SSW,197,12.0,17.0,47,0.00,,CLR,0.00,VWS V14.01,2013-07-06 16:53:00,
2013-07-06 11:58:00,86.2,63.6,29.82,SW,226,11.0,17.0,47,0.00,,CLR,0.00,VWS V14.01,2013-07-06 16:58:00,
2013-07-06 12:00:00,86.3,62.5,29.82,SE,145,7.0,17.0,45,0.00,,CLR,0.00,VWS V14.01,2013-07-06 17:00:00,
2013-07-06 12:03:00,86.5,61.4,29.82,SSW,206,11.0,14.0,43,0.00,,CLR,0.00,VWS V14.01,2013-07-06 17:03:00,
2013-07-06 12:08:00,86.6,64.0,29.82,SW,222,7.0,16.0,47,0.00,,CLR,0.00,VWS V14.01,2013-07-06 17:08:00,
2013-07-06 12:13:00,86.8,62.9,29.82,SW,214,9.0,16.0,45,0.00,,CLR,0.00,VWS V14.01,2013-07-06 17:13:00,
2013-07-06 12:19:00,87.2,62.7,29.82,SSE,150,12.0,16.0,44,0.00,,CLR,0.00,VWS V14.01,2013-07-06 17:19:00,
2013-07-06 12:24:00,87.1,61.9,29.82,SW,222,13.0,18.0,43,0.00,,CLR,0.00,VWS V14.01,2013-07-06 17:24:00,
2013-07-06 12:30:00,87.3,62.7,29.81,SSW,204,5.0,18.0,44,0.00,,CLR,0.00,VWS V14.01,2013-07-06 17:30:00,
2013-07-06 12:35:00,87.5,61.6,29.81,South,174,8.0,17.0,42,0.00,,CLR,0.00,VWS V14.01,2013-07-06 17:35:00,
2013-07-06 12:40:00,87.7,60.4,29.81,South,183,9.0,17.0,40,0.00,,CLR,0.00,VWS V14.01,2013-07-06 17:40:00,
2013-07-06 12:45:00,87.9,62.6,29.81,SSW,197,8.0,18.0,43,0.00,,CLR,0.00,VWS V14.01,2013-07-06 17:45:00,
2013-07-06 12:50:00,88.2,61.5,29.81,SSE,155,8.0,18.0,41,0.00,,CLR,0.00,VWS V14.01,2013-07-06 17:50:00,
2013-07-06 12:56:00,88.3,61.6,29.80,SSW,201,6.0,18.0,41,0.00,,CLR,0.00,VWS V14.01,2013-07-06 17:56:00,
2013-07-06 13:00:00,86.3,62.5,29.82,SE,145,7.0,17.0,45,0.00,,,0.00,VWS V14.01,2013-07-06 18:00:00,
2013-07-06 13:01:00,88.6,61.2,29.80,SSE,155,10.0,10.0,40,0.00,,CLR,0.00,VWS V14.01,2013-07-06 18:01:00,
2013-07-06 13:06:00,88.5,62.5,29.80,SE,125,6.0,18.0,42,0.00,,CLR,0.00,VWS V14.01,2013-07-06 18:06:00,
2013-07-06 13:11:00,89.0,60.1,29.80,SSW,193,11.0,18.0,38,0.00,,CLR,0.00,VWS V14.01,2013-07-06 18:11:00,
2013-07-06 13:16:00,89.2,61.8,29.80,SW,218,14.0,21.0,40,0.00,,CLR,0.00,VWS V14.01,2013-07-06 18:16:00,
2013-07-06 13:21:00,89.3,59.6,29.79,SE,144,15.0,21.0,37,0.00,,CLR,0.00,VWS V14.01,2013-07-06 18:21:00,
2013-07-06 13:26:00,89.3,59.6,29.79,South,172,8.0,21.0,37,0.00,,CLR,0.00,VWS V14.01,2013-07-06 18:26:00,
2013-07-06 13:30:00,89.4,59.7,29.79,SE,135,22.0,23.0,37,0.00,,CLR,0.00,VWS V14.01,2013-07-06 18:30:00,
2013-07-06 13:31:00,89.4,59.7,29.79,SSW,200,16.0,22.0,37,0.00,,CLR,0.00,VWS V14.01,2013-07-06 18:31:00,
2013-07-06 13:36:00,89.5,59.0,29.79,SSE,153,12.0,22.0,36,0.00,,CLR,0.00,VWS V14.01,2013-07-06 18:36:00,
2013-07-06 13:42:00,89.6,59.9,29.79,SSW,202,10.0,22.0,37,0.00,,CLR,0.00,VWS V14.01,2013-07-06 18:42:00,
2013-07-06 13:47:00,89.8,59.3,29.79,SSW,195,8.0,22.0,36,0.00,,CLR,0.00,VWS V14.01,2013-07-06 18:47:00,
2013-07-06 13:52:00,90.2,60.4,29.79,SSE,156,11.0,22.0,37,0.00,,CLR,0.00,VWS V14.01,2013-07-06 18:52:00,
2013-07-06 13:58:00,90.1,60.3,29.79,SSW,205,13.0,22.0,37,0.00,,CLR,0.00,VWS V14.01,2013-07-06 18:58:00,
2013-07-06 14:00:00,88.6,61.9,29.80,South,172,8.0,18.0,41,0.00,,,0.00,VWS V14.01,2013-07-06 19:00:00,
2013-07-06 14:03:00,90.0,58.7,29.79,SE,131,15.0,21.0,35,0.00,,CLR,0.00,VWS V14.01,2013-07-06 19:03:00,
2013-07-06 14:08:00,90.0,56.2,29.79,SSE,148,17.0,21.0,32,0.00,,CLR,0.00,VWS V14.01,2013-07-06 19:08:00,
2013-07-06 14:13:00,89.9,59.4,29.79,SSE,160,11.0,21.0,36,0.00,,CLR,0.00,VWS V14.01,2013-07-06 19:13:00,
2013-07-06 14:18:00,89.8,59.3,29.79,SE,140,16.0,21.0,36,0.00,,CLR,0.00,VWS V14.01,2013-07-06 19:18:00,
2013-07-06 14:23:00,89.7,62.2,29.79,SE,129,13.0,21.0,40,0.00,,CLR,0.00,VWS V14.01,2013-07-06 19:23:00,
2013-07-06 14:29:00,90.0,61.7,29.79,SSE,167,16.0,21.0,39,0.00,,CLR,0.00,VWS V14.01,2013-07-06 19:29:00,
2013-07-06 14:30:00,89.8,60.8,29.79,SE,136,11.0,21.0,38,0.00,,CLR,0.00,VWS V14.01,2013-07-06 19:30:00,
2013-07-06 14:34:00,89.8,62.3,29.79,SSW,204,11.0,15.0,40,0.00,,CLR,0.00,VWS V14.01,2013-07-06 19:34:00,
2013-07-06 14:39:00,89.9,63.1,29.79,SE,145,9.0,20.0,41,0.00,,CLR,0.00,VWS V14.01,2013-07-06 19:39:00,
2013-07-06 14:44:00,89.7,61.5,29.79,SE,143,12.0,22.0,39,0.00,,CLR,0.00,VWS V14.01,2013-07-06 19:44:00,
2013-07-06 14:49:00,89.6,62.8,29.79,SE,138,13.0,22.0,41,0.00,,CLR,0.00,VWS V14.01,2013-07-06 19:49:00,
2013-07-06 14:54:00,89.7,62.9,29.79,SE,145,12.0,22.0,41,0.00,,CLR,0.00,VWS V14.01,2013-07-06 19:54:00,
2013-07-06 15:00:00,89.7,62.2,29.79,SE,131,9.0,22.0,40,0.00,,CLR,0.00,VWS V14.01,2013-07-06 20:00:00,
2013-07-06 15:05:00,89.6,63.5,29.79,South,170,8.0,21.0,42,0.00,,CLR,0.00,VWS V14.01,2013-07-06 20:05:00,
2013-07-06 15:10:00,89.7,62.2,29.79,SSE,150,10.0,21.0,40,0.00,,CLR,0.00,VWS V14.01,2013-07-06 20:10:00,
2013-07-06 15:15:00,89.9,62.4,29.79,SE,129,13.0,21.0,40,0.00,,CLR,0.00,VWS V14.01,2013-07-06 20:15:00,
2013-07-06 15:20:00,89.9,62.4,29.79,SSE,159,12.0,21.0,40,0.00,,CLR,0.00,VWS V14.01,2013-07-06 20:20:00,
2013-07-06 15:25:00,89.7,62.9,29.79,SSE,153,13.0,21.0,41,0.00,,CLR,0.00,VWS V14.01,2013-07-06 20:25:00,
2013-07-06 15:30:00,89.9,63.1,29.79,SE,135,14.0,22.0,41,0.00,,CLR,0.00,VWS V14.01,2013-07-06 20:30:00,
2013-07-06 15:35:00,89.8,63.7,29.78,SSE,149,15.0,21.0,42,0.00,,CLR,0.00,VWS V14.01,2013-07-06 20:35:00,
2013-07-06 15:40:00,89.8,63.0,29.78,SSW,203,9.0,21.0,41,0.00,,CLR,0.00,VWS V14.01,2013-07-06 20:40:00,
2013-07-06 15:46:00,90.0,62.5,29.78,SE,129,20.0,21.0,40,0.00,,CLR,0.00,VWS V14.01,2013-07-06 20:46:00,
2013-07-06 15:51:00,89.8,63.0,29.79,ESE,122,15.0,21.0,41,0.00,,CLR,0.00,VWS V14.01,2013-07-06 20:51:00,
2013-07-06 15:57:00,89.7,62.2,29.78,SE,139,11.0,23.0,40,0.00,,CLR,0.00,VWS V14.01,2013-07-06 20:57:00,
2013-07-06 16:00:00,89.8,63.7,29.78,SE,135,8.0,23.0,42,0.00,,CLR,0.00,VWS V14.01,2013-07-06 21:00:00,
2013-07-06 16:02:00,89.9,63.8,29.78,SSE,158,15.0,19.0,42,0.00,,CLR,0.00,VWS V14.01,2013-07-06 21:02:00,
2013-07-06 16:07:00,89.5,62.7,29.78,SE,125,15.0,22.0,41,0.00,,CLR,0.00,VWS V14.01,2013-07-06 21:07:00,
2013-07-06 16:12:00,89.6,64.2,29.78,SSE,158,6.0,22.0,43,0.00,,CLR,0.00,VWS V14.01,2013-07-06 21:12:00,
2013-07-06 16:17:00,89.5,63.4,29.78,SSE,148,10.0,24.0,42,0.00,,CLR,0.00,VWS V14.01,2013-07-06 21:17:00,
2013-07-06 16:22:00,89.5,64.1,29.78,SE,126,13.0,24.0,43,0.00,,CLR,0.00,VWS V14.01,2013-07-06 21:22:00,
2013-07-06 16:27:00,89.2,63.1,29.78,SSE,150,14.0,24.0,42,0.00,,CLR,0.00,VWS V14.01,2013-07-06 21:27:00,
2013-07-06 16:30:00,89.2,63.8,29.78,SE,143,15.0,24.0,43,0.00,,CLR,0.00,VWS V14.01,2013-07-06 21:30:00,
2013-07-06 16:33:00,89.2,63.1,29.78,SE,139,16.0,21.0,42,0.00,,CLR,0.00,VWS V14.01,2013-07-06 21:33:00,
2013-07-06 16:38:00,89.2,63.8,29.78,SE,129,17.0,22.0,43,0.00,,CLR,0.00,VWS V14.01,2013-07-06 21:38:00,
2013-07-06 16:43:00,89.1,63.7,29.77,SSE,152,13.0,23.0,43,0.00,,CLR,0.00,VWS V14.01,2013-07-06 21:43:00,
2013-07-06 16:49:00,89.3,63.2,29.78,SSE,155,15.0,23.0,42,0.00,,CLR,0.00,VWS V14.01,2013-07-06 21:49:00,
2013-07-06 16:53:00,89.5,64.1,29.78,SE,140,12.0,23.0,43,0.00,,CLR,0.00,VWS V14.01,2013-07-06 21:53:00,
2013-07-06 16:58:00,89.7,63.6,29.77,South,191,9.0,23.0,42,0.00,,CLR,0.00,VWS V14.01,2013-07-06 21:58:00,
2013-07-06 17:00:00,89.9,63.8,29.77,SE,144,16.0,23.0,42,0.00,,CLR,0.00,VWS V14.01,2013-07-06 22:00:00,
2013-07-06 17:04:00,89.9,63.8,29.77,SSE,163,13.0,19.0,42,0.00,,CLR,0.00,VWS V14.01,2013-07-06 22:04:00,
2013-07-06 17:09:00,89.7,63.6,29.77,SE,140,12.0,20.0,42,0.00,,CLR,0.00,VWS V14.01,2013-07-06 22:09:00,
2013-07-06 17:14:00,89.8,62.3,29.77,SW,214,9.0,20.0,40,0.00,,CLR,0.00,VWS V14.01,2013-07-06 22:14:00,
2013-07-06 17:19:00,89.8,62.3,29.77,SE,139,11.0,20.0,40,0.00,,CLR,0.00,VWS V14.01,2013-07-06 22:19:00,
2013-07-06 17:24:00,89.7,62.9,29.77,SW,217,9.0,20.0,41,0.00,,CLR,0.00,VWS V14.01,2013-07-06 22:24:00,
2013-07-06 17:29:00,89.7,62.2,29.77,SE,135,16.0,21.0,40,0.00,,CLR,0.00,VWS V14.01,2013-07-06 22:29:00,
2013-07-06 17:30:00,89.7,62.9,29.77,SE,133,11.0,21.0,41,0.00,,CLR,0.00,VWS V14.01,2013-07-06 22:30:00,
2013-07-06 17:34:00,89.9,62.4,29.77,SSW,205,11.0,16.0,40,0.00,,CLR,0.00,VWS V14.01,2013-07-06 22:34:00,
2013-07-06 17:40:00,89.8,63.0,29.77,ESE,118,6.0,18.0,41,0.00,,CLR,0.00,VWS V14.01,2013-07-06 22:40:00,
2013-07-06 17:45:00,89.7,62.2,29.77,SSE,158,10.0,18.0,40,0.00,,CLR,0.00,VWS V14.01,2013-07-06 22:45:00,
2013-07-06 17:50:00,89.5,62.0,29.76,South,180,8.0,18.0,40,0.00,,CLR,0.00,VWS V14.01,2013-07-06 22:50:00,
2013-07-06 17:55:00,89.5,63.4,29.76,SSE,163,9.0,18.0,42,0.00,,CLR,0.00,VWS V14.01,2013-07-06 22:55:00,
2013-07-06 18:00:00,89.5,62.7,29.76,SSE,158,11.0,19.0,41,0.00,,CLR,0.00,VWS V14.01,2013-07-06 23:00:00,
2013-07-06 18:05:00,89.3,63.2,29.76,SSW,195,9.0,13.0,42,0.00,,CLR,0.00,VWS V14.01,2013-07-06 23:05:00,
2013-07-06 18:10:00,89.2,63.1,29.76,SW,226,6.0,20.0,42,0.00,,CLR,0.00,VWS V14.01,2013-07-06 23:10:00,
2013-07-06 18:15:00,89.1,63.0,29.76,SW,222,15.0,20.0,42,0.00,,CLR,0.00,VWS V14.01,2013-07-06 23:15:00,
2013-07-06 18:20:00,89.0,63.0,29.76,SSE,165,4.0,4.0,42,0.00,,CLR,0.00,VWS V14.01,2013-07-06 23:20:00,
2013-07-06 18:25:00,89.0,63.6,29.76,SE,135,11.0,16.0,43,0.00,,CLR,0.00,VWS V14.01,2013-07-06 23:25:00,
2013-07-06 18:30:00,88.8,63.4,29.77,SSE,148,6.0,16.0,43,0.00,,CLR,0.00,VWS V14.01,2013-07-06 23:30:00,
2013-07-06 18:36:00,88.8,64.1,29.77,SSE,147,8.0,14.0,44,0.00,,CLR,0.00,VWS V14.01,2013-07-06 23:36:00,
2013-07-06 18:41:00,88.7,64.7,29.77,South,181,10.0,14.0,45,0.00,,CLR,0.00,VWS V14.01,2013-07-06 23:41:00,
2013-07-06 18:46:00,88.3,64.3,29.76,SE,139,15.0,17.0,45,0.00,,CLR,0.00,VWS V14.01,2013-07-06 23:46:00,
2013-07-06 18:51:00,88.1,64.1,29.76,SE,134,11.0,19.0,45,0.00,,CLR,0.00,VWS V14.01,2013-07-06 23:51:00,
2013-07-06 18:56:00,87.9,63.9,29.76,SSE,158,4.0,19.0,45,0.00,,CLR,0.00,VWS V14.01,2013-07-06 23:56:00,
2013-07-06 19:00:00,89.4,62.6,29.76,South,180,13.0,19.0,41,0.00,,,0.00,VWS V14.01,2013-07-07 00:00:00,
2013-07-06 19:01:00,88.0,64.7,29.76,SE,137,8.0,11.0,46,0.00,,CLR,0.00,VWS V14.01,2013-07-07 00:01:00,
2013-07-06 19:06:00,87.6,64.3,29.76,SSE,150,13.0,16.0,46,0.00,,CLR,0.00,VWS V14.01,2013-07-07 00:06:00,
2013-07-06 19:11:00,87.1,65.1,29.76,SE,134,9.0,16.0,48,0.00,,CLR,0.00,VWS V14.01,2013-07-07 00:11:00,
2013-07-06 19:17:00,86.8,65.4,29.76,SE,136,7.0,16.0,49,0.00,,CLR,0.00,VWS V14.01,2013-07-07 00:17:00,
2013-07-06 19:22:00,86.6,65.2,29.76,SE,133,8.0,16.0,49,0.00,,CLR,0.00,VWS V14.01,2013-07-07 00:22:00,
2013-07-06 19:27:00,86.3,65.5,29.76,SE,124,10.0,18.0,50,0.00,,CLR,0.00,VWS V14.01,2013-07-07 00:27:00,
2013-07-06 19:30:00,88.8,63.4,29.77,SSE,148,6.0,16.0,43,0.00,,,0.00,VWS V14.01,2013-07-07 00:30:00,
2013-07-06 19:32:00,86.0,65.8,29.76,SE,137,13.0,15.0,51,0.00,,CLR,0.00,VWS V14.01,2013-07-07 00:32:00,
2013-07-06 19:37:00,85.5,65.3,29.76,SSE,153,15.0,16.0,51,0.00,,CLR,0.00,VWS V14.01,2013-07-07 00:37:00,
2013-07-06 19:42:00,85.2,65.1,29.76,SE,138,12.0,17.0,51,0.00,,CLR,0.00,VWS V14.01,2013-07-07 00:42:00,
2013-07-06 19:47:00,85.0,65.4,29.77,SSE,162,15.0,17.0,52,0.00,,CLR,0.00,VWS V14.01,2013-07-07 00:47:00,
2013-07-06 19:52:00,84.7,65.7,29.77,East,98,11.0,17.0,53,0.00,,CLR,0.00,VWS V14.01,2013-07-07 00:52:00,
2013-07-06 19:58:00,84.5,65.5,29.77,SE,141,12.0,17.0,53,0.00,,CLR,0.00,VWS V14.01,2013-07-07 00:58:00,
2013-07-06 20:00:00,88.0,64.0,29.76,SSE,159,9.0,19.0,45,0.00,,,0.00,VWS V14.01,2013-07-07 01:00:00,
2013-07-06 20:03:00,84.3,65.3,29.77,SSE,148,11.0,16.0,53,0.00,,CLR,0.00,VWS V14.01,2013-07-07 01:03:00,
2013-07-06 20:09:00,83.8,65.4,29.77,SSE,155,10.0,16.0,54,0.00,,CLR,0.00,VWS V14.01,2013-07-07 01:09:00,
2013-07-06 20:14:00,83.4,65.6,29.77,SE,138,10.0,16.0,55,0.00,,CLR,0.00,VWS V14.01,2013-07-07 01:14:00,
2013-07-06 20:19:00,83.2,65.4,29.77,SE,131,6.0,16.0,55,0.00,,CLR,0.00,VWS V14.01,2013-07-07 01:19:00,
2013-07-06 20:25:00,82.9,65.6,29.77,SE,139,10.0,16.0,56,0.00,,CLR,0.00,VWS V14.01,2013-07-07 01:25:00,
2013-07-06 20:30:00,82.5,65.8,29.77,SE,145,7.0,16.0,57,0.00,,CLR,0.00,VWS V14.01,2013-07-07 01:30:00,
2013-07-06 20:35:00,82.1,65.9,29.77,SE,138,8.0,11.0,58,0.00,,CLR,0.00,VWS V14.01,2013-07-07 01:35:00,
2013-07-06 20:40:00,81.7,66.0,29.77,SE,131,6.0,11.0,59,0.00,,CLR,0.00,VWS V14.01,2013-07-07 01:40:00,
2013-07-06 20:45:00,81.3,66.1,29.77,ESE,123,9.0,11.0,60,0.00,,CLR,0.00,VWS V14.01,2013-07-07 01:45:00,
2013-07-06 20:50:00,81.0,65.8,29.77,SSE,149,8.0,11.0,60,0.00,,CLR,0.00,VWS V14.01,2013-07-07 01:50:00,
2013-07-06 20:55:00,80.7,66.0,29.77,SE,134,7.0,11.0,61,0.00,,CLR,0.00,VWS V14.01,2013-07-07 01:55:00,
2013-07-06 21:00:00,80.4,65.7,29.78,SE,134,7.0,11.0,61,0.00,,CLR,0.00,VWS V14.01,2013-07-07 02:00:00,
2013-07-06 21:06:00,80.2,66.0,29.78,SE,143,8.0,11.0,62,0.00,,CLR,0.00,VWS V14.01,2013-07-07 02:06:00,
2013-07-06 21:11:00,80.1,65.9,29.78,SE,134,6.0,11.0,62,0.00,,CLR,0.00,VWS V14.01,2013-07-07 02:11:00,
2013-07-06 21:16:00,79.8,66.1,29.78,SSE,149,8.0,11.0,63,0.00,,CLR,0.00,VWS V14.01,2013-07-07 02:16:00,
2013-07-06 21:21:00,79.4,66.2,29.78,SE,138,8.0,11.0,64,0.00,,CLR,0.00,VWS V14.01,2013-07-07 02:21:00,
2013-07-06 21:26:00,79.2,66.0,29.79,SE,130,8.0,11.0,64,0.00,,CLR,0.00,VWS V14.01,2013-07-07 02:26:00,
2013-07-06 21:30:00,82.5,65.8,29.77,SSE,154,7.0,16.0,57,0.00,,,0.00,VWS V14.01,2013-07-07 02:30:00,
2013-07-06 21:31:00,79.1,65.9,29.79,SSE,153,8.0,9.0,64,0.00,,CLR,0.00,VWS V14.01,2013-07-07 02:31:00,
2013-07-06 21:37:00,78.9,66.2,29.79,SE,138,8.0,11.0,65,0.00,,CLR,0.00,VWS V14.01,2013-07-07 02:37:00,
2013-07-06 21:42:00,78.6,65.9,29.79,SSE,150,9.0,12.0,65,0.00,,CLR,0.00,VWS V14.01,2013-07-07 02:42:00,
2013-07-06 21:48:00,78.6,65.9,29.79,SE,133,7.0,12.0,65,0.00,,CLR,0.00,VWS V14.01,2013-07-07 02:48:00,
2013-07-06 21:53:00,78.4,65.7,29.80,SE,134,7.0,12.0,65,0.00,,CLR,0.00,VWS V14.01,2013-07-07 02:53:00,
2013-07-06 21:58:00,78.2,65.9,29.80,SE,134,7.0,12.0,66,0.00,,CLR,0.00,VWS V14.01,2013-07-07 02:58:00,
2013-07-06 22:00:00,80.4,65.7,29.78,SE,134,7.0,11.0,61,0.00,,,0.00,VWS V14.01,2013-07-07 03:00:00,
2013-07-06 22:03:00,78.1,65.8,29.80,SSE,155,5.0,10.0,66,0.00,,CLR,0.00,VWS V14.01,2013-07-07 03:03:00,
2013-07-06 22:09:00,78.0,65.7,29.81,SSE,159,8.0,11.0,66,0.00,,CLR,0.00,VWS V14.01,2013-07-07 03:09:00,
2013-07-06 22:14:00,77.9,66.1,29.81,SE,145,7.0,11.0,67,0.00,,CLR,0.00,VWS V14.01,2013-07-07 03:14:00,
2013-07-06 22:20:00,77.7,65.9,29.81,SSE,153,7.0,11.0,67,0.00,,CLR,0.00,VWS V14.01,2013-07-07 03:20:00,
2013-07-06 22:25:00,77.4,66.0,29.81,SE,133,5.0,11.0,68,0.00,,CLR,0.00,VWS V14.01,2013-07-07 03:25:00,
2013-07-06 22:30:00,77.2,65.8,29.81,SE,132,6.0,11.0,68,0.00,,CLR,0.00,VWS V14.01,2013-07-07 03:30:00,
2013-07-06 22:35:00,77.1,65.7,29.81,SE,134,4.0,9.0,68,0.00,,CLR,0.00,VWS V14.01,2013-07-07 03:35:00,
2013-07-06 22:40:00,77.1,65.7,29.81,SE,134,6.0,9.0,68,0.00,,CLR,0.00,VWS V14.01,2013-07-07 03:40:00,
2013-07-06 22:45:00,76.9,66.0,29.81,SE,137,5.0,9.0,69,0.00,,CLR,0.00,VWS V14.01,2013-07-07 03:45:00,
2013-07-06 22:51:00,76.7,66.2,29.81,ESE,113,4.0,9.0,70,0.00,,CLR,0.00,VWS V14.01,2013-07-07 03:51:00,
2013-07-06 22:56:00,76.5,66.0,29.81,SE,140,5.0,9.0,70,0.00,,CLR,0.00,VWS V14.01,2013-07-07 03:56:00,
2013-07-06 23:00:00,78.1,65.8,29.80,SE,145,7.0,12.0,66,0.00,,,0.00,VWS V14.01,2013-07-07 04:00:00,
2013-07-06 23:01:00,76.3,66.2,29.81,SSE,149,4.0,9.0,71,0.00,,CLR,0.00,VWS V14.01,2013-07-07 04:01:00,
2013-07-06 23:06:00,76.0,65.9,29.81,SE,141,4.0,7.0,71,0.00,,CLR,0.00,VWS V14.01,2013-07-07 04:06:00,
2013-07-06 23:11:00,75.9,65.8,29.81,SSE,151,6.0,8.0,71,0.00,,CLR,0.00,VWS V14.01,2013-07-07 04:11:00,
2013-07-06 23:16:00,75.7,66.0,29.81,SE,145,5.0,8.0,72,0.00,,CLR,0.00,VWS V14.01,2013-07-07 04:16:00,
2013-07-06 23:21:00,75.4,66.2,29.81,SE,126,6.0,8.0,73,0.00,,CLR,0.00,VWS V14.01,2013-07-07 04:21:00,
2013-07-06 23:26:00,75.1,65.9,29.81,South,180,6.0,8.0,73,0.00,,CLR,0.00,VWS V14.01,2013-07-07 04:26:00,
2013-07-06 23:30:00,77.2,65.8,29.81,SE,146,7.0,11.0,68,0.00,,,0.00,VWS V14.01,2013-07-07 04:30:00,
2013-07-06 23:31:00,75.1,65.9,29.81,SE,143,7.0,8.0,73,0.00,,CLR,0.00,VWS V14.01,2013-07-07 04:31:00,
2013-07-06 23:36:00,74.9,66.1,29.81,SE,145,5.0,8.0,74,0.00,,CLR,0.00,VWS V14.01,2013-07-07 04:36:00,
2013-07-06 23:41:00,74.8,66.0,29.81,SE,125,5.0,8.0,74,0.00,,CLR,0.00,VWS V14.01,2013-07-07 04:41:00,
2013-07-06 23:46:00,74.7,65.9,29.81,SE,133,5.0,8.0,74,0.00,,CLR,0.00,VWS V14.01,2013-07-07 04:46:00,
2013-07-06 23:51:00,74.5,66.1,29.81,SE,134,7.0,9.0,75,0.00,,CLR,0.00,VWS V14.01,2013-07-07 04:51:00,
2013-07-06 23:56:00,74.4,66.0,29.81,SSE,148,4.0,9.0,75,0.00,,CLR,0.00,VWS V14.01,2013-07-07 04:56:00,